Regional Weather Roundup
Issued by NWS

Home | Current Version | Previous Version | Text Only | Print | Product List | Glossary Off
Versions: 1 2 3 4 5 6 7 8 9 10 11 12 13 14 15 16 17 18 19 20 21 22 23 24 25 26

000
ASUS45 KSLC 222010
RWRUT

UTAH REGIONAL WEATHER ROUNDUP
NATIONAL WEATHER SERVICE SALT LAKE CITY UT
200 PM MDT THU JUN 22 2017

UTZ001>011-023>025-222100-

NORTHERN UTAH

CITY           SKY/WX    TMP DP  RH WIND       PRES   REMARKS
BRIGHAM CITY   SUNNY     81  32  17 W8        30.05F
HILL AFB       SUNNY     79  34  19 NW6       30.08F
LOGAN          SUNNY     80  38  22 VRB3      30.05F
OGDEN          SUNNY     80  30  16 W9        30.06F
SALT LAKE CITY MOSUNNY   84  32  15 VRB7      30.04F
TOOELE VALLEY  SUNNY     79  39  24 N8        30.07F
WENDOVER         N/A     85  31  14 E12       30.04F
HEBER CITY     SUNNY     84  36  17 SW7       30.06S
WEST JORDAN    SUNNY     80  49  32 NW14      30.07F

$$

UTZ011>015-024>027-222100-

CENTRAL/NORTHEAST UTAH

CITY           SKY/WX    TMP DP  RH WIND       PRES   REMARKS
PROVO AIRPORT  SUNNY     83  43  24 W10       30.05F
MOAB/CANYONLAN SUNNY    101  28   7 W15G23    29.85F HX  94
DELTA          SUNNY     88  21   8 NW12      30.05F
PRICE          SUNNY     90  34  13 W14G26    30.02F
RICHFIELD      SUNNY     88  46  23 NE7       30.05F
ROOSEVELT      SUNNY     95  30  10 W29G37    29.94S
VERNAL         SUNNY     93  41  16 E9        29.92F

$$

UTZ013>016-019>022-027-222100-

SOUTHERN UTAH

CITY           SKY/WX    TMP DP  RH WIND       PRES   REMARKS
BRYCE CANYON   SUNNY     86  24  10 NW15      30.21F
CEDAR CITY     SUNNY     92  37  14 VRB7      30.06F
MILFORD        SUNNY     90  26  10 N15G26    30.05F
ST GEORGE      CLEAR    105  30   7 NW9       29.81F HX  98
HANKSVILLE     SUNNY    104  28   7 N18G26    29.88F HX  97
KANAB          SUNNY    100  18   5 W13G22    30.01F HX  93
BLANDING       SUNNY     96  15   5 W17G25    30.06S

$$

REGIONAL REPORTS     COLORADO/ARIZONA

CITY           SKY/WX    TMP DP  RH WIND       PRES   REMARKS
CRAIG, CO      SUNNY     89  34  14 N10G21    30.00F
GRAND JUNCTION SUNNY     97  34  11 W13G23    29.86F HX  91
RIFLE, CO      CLOUDY    92  31  11 W18       29.92F
MONTROSE, CO   SUNNY     94  28   9 NW7       29.96F
CORTEZ, CO     SUNNY     95  23   7 W13G28    30.01F
COLORADO CITY    N/A    100  25   7 NW7G16    30.02S HX  93
PAGE, AZ       SUNNY    105  18   4 W10G24    29.88F HX  97
GRAND CANYON   SUNNY     94  19   6 SW21G32   30.14F
KINGMAN, AZ    SUNNY    103  32   8 SW10G24   29.91F HX  96
FLAGSTAFF, AZ  SUNNY     90  26  10 SW14G24   30.18F

$$

REGIONAL REPORTS    NEVADA/IDAHO/WYOMING

CITY           SKY/WX    TMP DP  RH WIND       PRES   REMARKS
LAS VEGAS, NV  MOSUNNY  110   9   2 VRB3      29.76F HX 100
ELY, NY        SUNNY     87  36  16 NE12      30.14F
ELKO, NV       SUNNY     84  28  13 NW12      30.12F
POCATELLO, ID  SUNNY     75  41  29 NW12      30.11S
BURLEY, ID     SUNNY     74  34  23 W13G21    30.10F
FORT BRIDGER,    N/A     80  28  15 NW20G26   30.16F
EVANSTON, WY   SUNNY     76  32  20 W20G28    30.17F
ROCK SPRINGS,  SUNNY     81  20  10 W29G36    30.06F
KEMMERER, WY     N/A     73  30  20 W15       30.17S

$$




USA.gov is the U.S. government's official web portal to all federal, state and local government web resources and services.